Location: NJAA Observatory
(40.6819°N, 74.8979°W)
Time: 02:57:18
(UTC-04:00)

Iridium 4 - Visible Passes

Search period start: 23 May 2018 00:00
Search period end: 02 June 2018 00:00
Orbit: 772 x 776 km, 86.4° (Epoch: 22 May)

Date Brightness Start Highest point End Pass type
(mag) Time Alt. Az. Time Alt. Az. Time Alt. Az.
23 May 7.9 21:48:03 10° SW 21:52:01 22° WNW 21:56:01 10° NNW visible
24 May 6.9 21:12:25 10° SSW 21:17:17 40° W 21:22:11 10° NNW visible
26 May 8.3 21:46:03 10° WSW 21:49:16 16° WNW 21:52:30 10° NW visible
27 May 7.6 21:09:56 10° SW 21:14:28 30° W 21:19:01 10° NNW visible
29 May 8.6 21:44:37 10° W 21:46:33 12° WNW 21:48:29 10° NW visible
30 May 8.1 21:07:39 10° SW 21:11:41 22° WNW 21:15:43 10° NNW visible
